Weather History for Oklahoma City, OK

Change the Weather History Date:

Thursday, December 26, 2013

  Actual Average Record
Temperature  
Mean Temperature 39 °F 39 °F  
Max Temperature 55 °F 49 °F 76 °F (2008)
Min Temperature 22 °F 29 °F 2 °F (1892)
Degree Days  
Heating Degree Days 26 26  
Month to date heating degree days 733 627  
Since 1 July heating degree days 1393 1226  
Moisture  
Dew Point 26 °F    
Average Humidity 64    
Maximum Humidity 100    
Minimum Humidity 27    
Precipitation  
Precipitation 0.00 in 0.05 in 1.15 in (1940)
Month to date precipitation 1.26 1.63  
Year to date precipitation 52.78 36.27  
Snow  
Snow 0.00 in 0.10 in 2.70 in (1939)
Month to date snowfall 4.1 1.7  
Since 1 July snowfall 4.7 2.1  
Snow Depth 0.00 in    
Sea Level Pressure  
Sea Level Pressure 30.37 in    
Wind  
Wind Speed 5 mph (SSW)    
Max Wind Speed 14 mph    
Max Gust Speed 18 mph    
Visibility 9 miles    
Events      
T = Trace of Precipitation, MM = Missing Value Source: NWS Daily Summary

Daily Weather History Graph

Daily Weather History Graph

Search for Another Location

Airport:

Trip Planner

Search our weather history database for the weather conditions in past years. The results will help you decide how hot, cold, wet, or windy it might be!

Date:

Astronomy

Dec. 26, 2013 Rise Set
Actual Time 7:37 AM CST 5:24 PM CST
Civil Twilight 7:09 AM CST 5:52 PM CST
Nautical Twilight 6:37 AM CST 6:24 PM CST
Astronomical Twilight 6:06 AM CST 6:55 PM CST
Moon 1:17 AM CST (12/26) 12:52 PM CST (12/26)
Length of Visible Light 10h 43m
Length of Day
9h 46m
Last Quarter, 38% of the Moon is Illuminated
Dec 26
Last Quarter
Jan 1
New
Jan 7
First Quarter
Jan 15
Full
Jan 23
Last Quarter

Hourly Weather History & Observations

Time (CST) Temp. Windchill Dew Point Humidity Pressure Visibility Wind Dir Wind Speed Gust Speed Precip Events Conditions
12:52 AM 30.0 °F - 27.0 °F 88% 30.43 in 5.0 mi Calm Calm - N/A   Clear
1:52 AM 27.0 °F - 24.1 °F 89% 30.41 in 5.0 mi Calm Calm - N/A   Clear
2:52 AM 27.0 °F - 23.0 °F 85% 30.40 in 5.0 mi Calm Calm - N/A   Clear
3:52 AM 25.0 °F - 21.0 °F 85% 30.40 in 5.0 mi Calm Calm - N/A   Clear
4:52 AM 27.0 °F - 23.0 °F 85% 30.39 in 5.0 mi Calm Calm - N/A   Clear
5:52 AM 24.1 °F - 21.0 °F 88% 30.41 in 8.0 mi Calm Calm - N/A   Clear
6:52 AM 25.0 °F - 21.0 °F 85% 30.41 in 9.0 mi Calm Calm - N/A   Clear
7:52 AM 26.1 °F 21.9 °F 21.9 °F 84% 30.41 in 7.0 mi SSW 3.5 mph - N/A   Clear
8:52 AM 28.9 °F - 28.0 °F 96% 30.41 in 7.0 mi Calm Calm - N/A   Clear
9:52 AM 36.0 °F 31.1 °F 32.0 °F 86% 30.42 in 10.0 mi South 5.8 mph - N/A   Clear
10:52 AM 44.1 °F 40.1 °F 34.0 °F 68% 30.40 in 10.0 mi SW 6.9 mph - N/A   Clear
11:52 AM 48.9 °F - 30.9 °F 50% 30.39 in 10.0 mi SW 9.2 mph - N/A   Clear
12:52 PM 52.0 °F - 28.9 °F 41% 30.35 in 10.0 mi SW 10.4 mph - N/A   Clear
1:52 PM 52.0 °F - 28.9 °F 41% 30.34 in 10.0 mi SW 11.5 mph - N/A   Clear
2:52 PM 55.0 °F - 26.1 °F 33% 30.30 in 10.0 mi SSW 12.7 mph - N/A   Clear
3:52 PM 55.0 °F - 23.0 °F 29% 30.30 in 10.0 mi SSW 10.4 mph - N/A   Partly Cloudy
4:52 PM 50.0 °F - 27.0 °F 41% 30.30 in 10.0 mi South 9.2 mph - N/A   Scattered Clouds
5:52 PM 43.0 °F 38.8 °F 25.0 °F 49% 30.31 in 10.0 mi South 6.9 mph - N/A   Scattered Clouds
6:52 PM 39.0 °F 33.4 °F 26.1 °F 60% 30.33 in 10.0 mi South 8.1 mph - N/A   Scattered Clouds
7:52 PM 37.9 °F 32.7 °F 26.1 °F 62% 30.35 in 10.0 mi SSW 6.9 mph - N/A   Clear
8:52 PM 34.0 °F 29.8 °F 26.1 °F 73% 30.36 in 10.0 mi SSW 4.6 mph - N/A   Clear
9:52 PM 34.0 °F 28.0 °F 26.1 °F 73% 30.36 in 10.0 mi South 6.9 mph - N/A   Clear
10:52 PM 35.1 °F 29.3 °F 27.0 °F 72% 30.36 in 10.0 mi South 6.9 mph - N/A   Clear
11:52 PM 33.1 °F 28.7 °F 26.1 °F 75% 30.36 in 10.0 mi South 4.6 mph - N/A   Clear